Flag Weather past 2 weeks in Alsdorf, North Rhine-Westphalia, Germany

Now
46 °F

Sunny.


Feels Like: 40 °F
Forecast: 38 / 47 °F
Wind: 16 mph from East

Location: Geilenkirchen Airport

Current Time: Nov 28, 2014 at 4:12:05 PM

Latest Report: Nov 28, 2014 at 3:50 PM


Visibility: 10 mi

Pressure: 29.77 "Hg

Humidity: 82%

Dew point: 41 °F

Location of AlsdorfLocation

Historic Weather in Alsdorf — Graph

°F

Alsdorf temperature yesterday

Maximum temperature yesterday: 46 °F (at 12:50 PM)
Minimum temperature yesterday: 43 °F (at 12:50 AM)
Average temperature yesterday: 44 °F

Past Weeks' High & Low Weather Summary

 TemperatureHumidityPressure
High57 °F (Nov 13, 2:50 PM)100% (Nov 13, 7:50 PM)30.33 "Hg (Nov 13, 7:50 PM)
Low30 °F (Nov 25, 5:50 AM)67% (Nov 13, 2:50 PM)29.53 "Hg (Nov 16, 8:50 PM)
Average44 °F90%29.97 "Hg
* Reported Nov 13 2:50 PM — Nov 28 2:50 PM, Alsdorf, Weather by CustomWeather, © 2014

Note: Actual official high and low records may vary slightly from our data, if they occured in-between our weather recording intervals... More about our weather records

Advertising

Alsdorf weather history for previous 24 hours

 ConditionsComfort  
Time TempWeatherWind HumidityBarometerVisibility
2:50 PM
Nov 28
46 °FSunny.21 mph82%29.74 "Hg10 mi
1:50 PM46 °FSunny.20 mph82%29.74 "Hg10 mi
12:50 PM46 °FLight rain. Partly sunny.21 mph82%29.74 "HgN/A
11:50 AM46 °FBroken clouds.18 mph82%29.74 "Hg4 mi
10:50 AM45 °FBroken clouds.17 mph81%29.77 "Hg4 mi
9:50 AM45 °FLight rain. Partly sunny.22 mph87%29.74 "Hg4 mi
8:50 AM45 °FPartly sunny.17 mph87%29.74 "Hg4 mi
7:50 AM45 °FPassing clouds.17 mph87%29.74 "Hg4 mi
6:50 AM43 °FPartly cloudy.16 mph93%29.71 "Hg5 mi
5:50 AM43 °FPartly cloudy.16 mph93%29.71 "Hg4 mi
4:50 AM43 °FPassing clouds.14 mph93%29.71 "Hg4 mi
3:50 AM43 °FPassing clouds.12 mph93%29.74 "Hg4 mi
2:50 AM43 °FPartly cloudy.12 mph93%29.74 "Hg4 mi
1:50 AM43 °FPassing clouds.12 mph93%29.74 "Hg4 mi
12:50 AM43 °FPassing clouds.8 mph93%29.74 "Hg4 mi
11:50 PM
Nov 27
43 °FPassing clouds.9 mph93%29.74 "Hg4 mi
10:50 PM43 °FPassing clouds.9 mph93%29.71 "Hg4 mi
9:50 PM43 °FPassing clouds.12 mph93%29.71 "Hg4 mi
8:50 PM45 °FPassing clouds.12 mph93%29.71 "Hg4 mi
7:50 PM45 °FPassing clouds.12 mph93%29.71 "Hg2 mi
6:50 PM45 °FLight rain. Fog.15 mph93%29.71 "Hg3 mi
5:50 PM45 °FLight rain. Fog.15 mph93%29.71 "Hg2 mi
4:50 PM45 °FLight rain. Partly cloudy.15 mph93%29.71 "Hg3 mi
Weather by CustomWeather, © 2014

See weather overviewHow to use our weather pages